Time,TemperatureF,DewpointF,PressureIn,WindDirection,WindDirectionDegrees,WindSpeedMPH,WindSpeedGustMPH,Humidity,HourlyPrecipIn,Conditions,Clouds,dailyrainin,SoftwareType,DateUTC
2013-10-03 00:01:00,71.5,67.8,30.11,West,259,0.0,2.0,88,0.00,,---,0.00,VWS V14.01,2013-10-03 04:01:00,
2013-10-03 00:02:00,71.5,67.8,30.11,West,259,1.0,2.0,88,0.00,,---,0.00,VWS V14.01,2013-10-03 04:02:00,
2013-10-03 00:03:00,71.5,67.8,30.11,West,259,1.0,2.0,88,0.00,,---,0.00,VWS V14.01,2013-10-03 04:03:00,
2013-10-03 00:04:00,71.5,67.8,30.11,West,259,2.0,2.0,88,0.00,,---,0.00,VWS V14.01,2013-10-03 04:04:00,
2013-10-03 00:09:00,71.4,67.7,30.11,WNW,282,3.0,5.0,88,0.00,,---,0.00,VWS V14.01,2013-10-03 04:09:00,
2013-10-03 00:14:00,71.2,67.8,30.11,WNW,282,3.0,5.0,89,0.00,,---,0.00,VWS V14.01,2013-10-03 04:14:00,
2013-10-03 00:19:00,71.0,67.3,30.11,WNW,283,4.0,5.0,88,0.00,,---,0.00,VWS V14.01,2013-10-03 04:19:00,
2013-10-03 00:24:00,70.9,67.5,30.11,WNW,283,3.0,5.0,89,0.00,,---,0.00,VWS V14.01,2013-10-03 04:24:00,
2013-10-03 00:30:00,70.6,67.2,30.11,WNW,284,3.0,4.0,89,0.00,,---,0.00,VWS V14.01,2013-10-03 04:30:00,
2013-10-03 00:35:00,70.5,67.4,30.11,WNW,284,2.0,4.0,90,0.00,,---,0.00,VWS V14.01,2013-10-03 04:35:00,
2013-10-03 00:40:00,70.5,67.4,30.11,WNW,284,2.0,4.0,90,0.00,,---,0.00,VWS V14.01,2013-10-03 04:40:00,
2013-10-03 00:45:00,70.4,67.0,30.11,WNW,284,3.0,4.0,89,0.00,,---,0.00,VWS V14.01,2013-10-03 04:45:00,
2013-10-03 00:50:00,70.4,67.3,30.11,WNW,284,3.0,4.0,90,0.00,,---,0.00,VWS V14.01,2013-10-03 04:50:00,
2013-10-03 00:55:00,70.4,67.3,30.11,WNW,284,3.0,4.0,90,0.00,,---,0.00,VWS V14.01,2013-10-03 04:55:00,
2013-10-03 01:00:00,70.4,67.0,30.11,WNW,284,3.0,4.0,89,0.00,,---,0.00,VWS V14.01,2013-10-03 05:00:00,
2013-10-03 01:05:00,70.5,67.1,30.11,WNW,284,3.0,4.0,89,0.00,,---,0.00,VWS V14.01,2013-10-03 05:05:00,
2013-10-03 01:10:00,70.4,67.0,30.11,WNW,284,3.0,4.0,89,0.00,,---,0.00,VWS V14.01,2013-10-03 05:10:00,
2013-10-03 01:15:00,70.3,66.9,30.11,WNW,284,3.0,4.0,89,0.00,,---,0.00,VWS V14.01,2013-10-03 05:15:00,
2013-10-03 01:20:00,70.3,66.9,30.11,WNW,284,3.0,4.0,89,0.00,,---,0.00,VWS V14.01,2013-10-03 05:20:00,
2013-10-03 01:25:00,70.4,67.0,30.11,WNW,284,4.0,4.0,89,0.00,,---,0.00,VWS V14.01,2013-10-03 05:25:00,
2013-10-03 01:30:00,70.4,67.0,30.10,WNW,284,4.0,5.0,89,0.00,,---,0.00,VWS V14.01,2013-10-03 05:30:00,
2013-10-03 01:35:00,70.4,67.0,30.10,WNW,284,3.0,5.0,89,0.00,,---,0.00,VWS V14.01,2013-10-03 05:35:00,
2013-10-03 01:41:00,70.3,66.9,30.10,WNW,284,4.0,5.0,89,0.00,,---,0.00,VWS V14.01,2013-10-03 05:41:00,
2013-10-03 01:46:00,70.3,66.9,30.10,WNW,284,3.0,5.0,89,0.00,,---,0.00,VWS V14.01,2013-10-03 05:46:00,
2013-10-03 01:51:00,70.2,66.5,30.10,WNW,284,2.0,5.0,88,0.00,,---,0.00,VWS V14.01,2013-10-03 05:51:00,
2013-10-03 01:56:00,70.2,66.8,30.10,WNW,284,3.0,5.0,89,0.00,,---,0.00,VWS V14.01,2013-10-03 05:56:00,
2013-10-03 02:01:00,70.1,66.7,30.10,WNW,284,3.0,4.0,89,0.00,,---,0.00,VWS V14.01,2013-10-03 06:01:00,
2013-10-03 02:06:00,70.1,67.0,30.10,WNW,284,4.0,4.0,90,0.00,,---,0.00,VWS V14.01,2013-10-03 06:06:00,
2013-10-03 02:11:00,70.0,66.6,30.10,WNW,284,3.0,4.0,89,0.00,,---,0.00,VWS V14.01,2013-10-03 06:11:00,
2013-10-03 02:16:00,70.0,66.9,30.10,WNW,284,2.0,4.0,90,0.00,,---,0.00,VWS V14.01,2013-10-03 06:16:00,
2013-10-03 02:21:00,69.9,66.5,30.10,WNW,284,1.0,4.0,89,0.00,,---,0.00,VWS V14.01,2013-10-03 06:21:00,
2013-10-03 02:26:00,69.8,66.4,30.10,WNW,284,2.0,4.0,89,0.00,,---,0.00,VWS V14.01,2013-10-03 06:26:00,
2013-10-03 02:31:00,69.8,66.4,30.09,WNW,284,1.0,2.0,89,0.00,,---,0.00,VWS V14.01,2013-10-03 06:31:00,
2013-10-03 02:36:00,69.8,66.7,30.09,WNW,284,0.0,2.0,90,0.00,,---,0.00,VWS V14.01,2013-10-03 06:36:00,
2013-10-03 02:41:00,69.8,66.7,30.10,WNW,284,0.0,2.0,90,0.00,,---,0.00,VWS V14.01,2013-10-03 06:41:00,
2013-10-03 02:47:00,69.8,66.7,30.09,WNW,284,0.0,3.0,90,0.00,,---,0.00,VWS V14.01,2013-10-03 06:47:00,
2013-10-03 02:52:00,69.8,66.7,30.09,WNW,284,2.0,3.0,90,0.00,,---,0.00,VWS V14.01,2013-10-03 06:52:00,
2013-10-03 02:57:00,69.7,66.6,30.09,WNW,284,2.0,3.0,90,0.00,,---,0.00,VWS V14.01,2013-10-03 06:57:00,
2013-10-03 03:02:00,69.7,66.6,30.09,WNW,284,2.0,2.0,90,0.00,,---,0.00,VWS V14.01,2013-10-03 07:02:00,
2013-10-03 03:07:00,69.6,66.5,30.09,WNW,285,1.0,2.0,90,0.00,,---,0.00,VWS V14.01,2013-10-03 07:07:00,
2013-10-03 03:12:00,69.5,66.4,30.09,WNW,288,1.0,2.0,90,0.00,,---,0.00,VWS V14.01,2013-10-03 07:12:00,
2013-10-03 03:17:00,69.5,66.4,30.09,WNW,289,2.0,3.0,90,0.00,,---,0.00,VWS V14.01,2013-10-03 07:17:00,
2013-10-03 03:22:00,69.4,66.7,30.09,WNW,289,1.0,3.0,91,0.00,,---,0.00,VWS V14.01,2013-10-03 07:22:00,
2013-10-03 03:27:00,69.4,66.7,30.09,WNW,289,0.0,3.0,91,0.00,,---,0.00,VWS V14.01,2013-10-03 07:27:00,
2013-10-03 03:32:00,69.4,66.7,30.09,WNW,289,2.0,3.0,91,0.00,,---,0.00,VWS V14.01,2013-10-03 07:32:00,
2013-10-03 03:37:00,69.5,66.8,30.09,WNW,289,2.0,3.0,91,0.00,,---,0.00,VWS V14.01,2013-10-03 07:37:00,
2013-10-03 03:42:00,69.5,66.8,30.09,WNW,289,4.0,4.0,91,0.00,,---,0.00,VWS V14.01,2013-10-03 07:42:00,
2013-10-03 03:47:00,69.5,67.1,30.09,WNW,289,3.0,4.0,92,0.00,,---,0.00,VWS V14.01,2013-10-03 07:47:00,
2013-10-03 03:52:00,69.5,67.1,30.09,WNW,289,2.0,4.0,92,0.00,,---,0.00,VWS V14.01,2013-10-03 07:52:00,
2013-10-03 03:57:00,69.4,67.0,30.09,WNW,294,2.0,3.0,92,0.00,,---,0.00,VWS V14.01,2013-10-03 07:57:00,
2013-10-03 04:02:00,69.3,66.9,30.09,WNW,294,0.0,3.0,92,0.00,,---,0.00,VWS V14.01,2013-10-03 08:02:00,
2013-10-03 04:08:00,69.2,66.8,30.09,WNW,295,1.0,3.0,92,0.00,,---,0.00,VWS V14.01,2013-10-03 08:08:00,
2013-10-03 04:13:00,69.2,66.8,30.09,WNW,297,1.0,3.0,92,0.00,,---,0.00,VWS V14.01,2013-10-03 08:13:00,
2013-10-03 04:18:00,69.2,66.8,30.09,WNW,298,0.0,3.0,92,0.00,,---,0.00,VWS V14.01,2013-10-03 08:18:00,
2013-10-03 04:23:00,69.1,66.7,30.09,WNW,298,0.0,3.0,92,0.00,,---,0.00,VWS V14.01,2013-10-03 08:23:00,
2013-10-03 04:28:00,69.0,66.6,30.09,WNW,298,1.0,2.0,92,0.00,,---,0.00,VWS V14.01,2013-10-03 08:28:00,
2013-10-03 04:33:00,69.0,66.6,30.09,WNW,298,1.0,3.0,92,0.00,,---,0.00,VWS V14.01,2013-10-03 08:33:00,
2013-10-03 04:38:00,69.0,66.9,30.09,WNW,298,2.0,3.0,93,0.00,,---,0.00,VWS V14.01,2013-10-03 08:38:00,
2013-10-03 04:43:00,68.9,66.8,30.09,WNW,298,2.0,4.0,93,0.00,,---,0.00,VWS V14.01,2013-10-03 08:43:00,
2013-10-03 04:48:00,68.9,66.8,30.09,WNW,302,1.0,4.0,93,0.00,,---,0.00,VWS V14.01,2013-10-03 08:48:00,
2013-10-03 04:53:00,68.9,66.8,30.09,WNW,302,1.0,4.0,93,0.00,,---,0.00,VWS V14.01,2013-10-03 08:53:00,
2013-10-03 04:58:00,68.8,66.7,30.09,NW,317,3.0,3.0,93,0.00,,---,0.00,VWS V14.01,2013-10-03 08:58:00,
2013-10-03 05:03:00,68.7,66.6,30.09,NW,317,2.0,4.0,93,0.00,,---,0.00,VWS V14.01,2013-10-03 09:03:00,
2013-10-03 05:08:00,68.7,66.9,30.09,NW,322,2.0,4.0,94,0.00,,---,0.00,VWS V14.01,2013-10-03 09:08:00,
2013-10-03 05:13:00,68.6,66.8,30.09,NW,315,1.0,5.0,94,0.00,,---,0.00,VWS V14.01,2013-10-03 09:13:00,
2013-10-03 05:18:00,68.6,66.8,30.09,NW,316,0.0,5.0,94,0.00,,---,0.00,VWS V14.01,2013-10-03 09:18:00,
2013-10-03 05:24:00,68.6,66.8,30.09,NW,316,1.0,5.0,94,0.00,,---,0.00,VWS V14.01,2013-10-03 09:24:00,
2013-10-03 05:29:00,68.6,66.8,30.09,NW,317,1.0,2.0,94,0.00,,---,0.00,VWS V14.01,2013-10-03 09:29:00,
2013-10-03 05:34:00,68.5,66.4,30.09,NW,317,2.0,3.0,93,0.00,,---,0.00,VWS V14.01,2013-10-03 09:34:00,
2013-10-03 05:39:00,68.4,66.6,30.09,NW,317,2.0,4.0,94,0.00,,---,0.00,VWS V14.01,2013-10-03 09:39:00,
2013-10-03 05:44:00,68.3,66.5,30.09,NW,317,2.0,4.0,94,0.00,,---,0.00,VWS V14.01,2013-10-03 09:44:00,
2013-10-03 05:49:00,68.2,66.4,30.09,NNW,327,4.0,5.0,94,0.00,,---,0.00,VWS V14.01,2013-10-03 09:49:00,
2013-10-03 05:54:00,68.0,66.2,30.09,NW,325,3.0,5.0,94,0.00,,---,0.00,VWS V14.01,2013-10-03 09:54:00,
2013-10-03 05:59:00,67.9,66.1,30.09,NW,326,3.0,4.0,94,0.00,,---,0.00,VWS V14.01,2013-10-03 09:59:00,
2013-10-03 06:04:00,67.9,66.1,30.09,NNW,327,2.0,5.0,94,0.00,,---,0.00,VWS V14.01,2013-10-03 10:04:00,
2013-10-03 06:09:00,68.1,66.6,30.09,NNW,327,1.0,5.0,95,0.00,,---,0.00,VWS V14.01,2013-10-03 10:09:00,
2013-10-03 06:14:00,68.2,66.7,30.09,NNW,329,1.0,5.0,95,0.00,,---,0.00,VWS V14.01,2013-10-03 10:14:00,
2013-10-03 06:19:00,68.3,66.8,30.09,NNW,329,3.0,5.0,95,0.00,,---,0.00,VWS V14.01,2013-10-03 10:19:00,
2013-10-03 06:24:00,68.3,66.5,30.09,NNW,329,1.0,5.0,94,0.00,,---,0.00,VWS V14.01,2013-10-03 10:24:00,
2013-10-03 06:29:00,68.3,66.8,30.10,NNW,329,1.0,4.0,95,0.00,,---,0.00,VWS V14.01,2013-10-03 10:29:00,
2013-10-03 06:35:00,68.3,66.8,30.10,NNW,336,2.0,4.0,95,0.00,,---,0.00,VWS V14.01,2013-10-03 10:35:00,
2013-10-03 06:40:00,68.2,66.4,30.10,NNW,333,3.0,4.0,94,0.00,,---,0.00,VWS V14.01,2013-10-03 10:40:00,
2013-10-03 06:45:00,68.0,66.2,30.10,NNW,332,3.0,5.0,94,0.00,,---,0.00,VWS V14.01,2013-10-03 10:45:00,
2013-10-03 06:50:00,67.9,66.1,30.10,NNW,338,3.0,5.0,94,0.00,,---,0.00,VWS V14.01,2013-10-03 10:50:00,
2013-10-03 06:55:00,67.8,66.0,30.10,NNW,338,2.0,5.0,94,0.00,,---,0.00,VWS V14.01,2013-10-03 10:55:00,
2013-10-03 07:00:00,67.9,66.1,30.11,North,355,4.0,5.0,94,0.00,,---,0.00,VWS V14.01,2013-10-03 11:00:00,
2013-10-03 07:05:00,67.7,65.6,30.11,North,355,6.0,7.0,93,0.00,,---,0.00,VWS V14.01,2013-10-03 11:05:00,
2013-10-03 07:10:00,67.5,65.4,30.11,NNW,345,6.0,8.0,93,0.00,,---,0.00,VWS V14.01,2013-10-03 11:10:00,
2013-10-03 07:15:00,67.5,65.7,30.11,NNW,346,6.0,8.0,94,0.00,,---,0.00,VWS V14.01,2013-10-03 11:15:00,
2013-10-03 07:20:00,67.6,65.8,30.11,NNW,346,5.0,8.0,94,0.00,,---,0.00,VWS V14.01,2013-10-03 11:20:00,
2013-10-03 07:25:00,67.7,65.9,30.11,North,355,5.0,8.0,94,0.00,,---,0.00,VWS V14.01,2013-10-03 11:25:00,
2013-10-03 07:30:00,67.6,65.5,30.11,North,355,7.0,7.0,93,0.00,,---,0.00,VWS V14.01,2013-10-03 11:30:00,
2013-10-03 07:35:00,67.4,65.3,30.11,North,355,6.0,9.0,93,0.00,,---,0.00,VWS V14.01,2013-10-03 11:35:00,
2013-10-03 07:40:00,67.4,65.3,30.11,North,355,6.0,9.0,93,0.00,,---,0.00,VWS V14.01,2013-10-03 11:40:00,
2013-10-03 07:45:00,67.4,65.6,30.11,NNW,348,7.0,9.0,94,0.00,,---,0.00,VWS V14.01,2013-10-03 11:45:00,
2013-10-03 07:51:00,67.5,65.4,30.12,North,349,4.0,9.0,93,0.00,,---,0.00,VWS V14.01,2013-10-03 11:51:00,
2013-10-03 07:56:00,67.8,65.7,30.12,North,355,5.0,9.0,93,0.00,,---,0.00,VWS V14.01,2013-10-03 11:56:00,
2013-10-03 08:01:00,67.9,65.5,30.12,North,360,6.0,7.0,92,0.00,,---,0.00,VWS V14.01,2013-10-03 12:01:00,
2013-10-03 08:06:00,68.0,65.6,30.12,North,355,5.0,7.0,92,0.00,,---,0.00,VWS V14.01,2013-10-03 12:06:00,
2013-10-03 08:11:00,68.2,65.5,30.12,North,350,7.0,7.0,91,0.00,,---,0.00,VWS V14.01,2013-10-03 12:11:00,
2013-10-03 08:16:00,68.4,65.4,30.12,North,355,6.0,10.0,90,0.00,,---,0.00,VWS V14.01,2013-10-03 12:16:00,
2013-10-03 08:21:00,68.6,65.6,30.12,North,360,6.0,10.0,90,0.00,,---,0.00,VWS V14.01,2013-10-03 12:21:00,
2013-10-03 08:26:00,68.8,65.4,30.12,North,355,6.0,10.0,89,0.00,,---,0.00,VWS V14.01,2013-10-03 12:26:00,
2013-10-03 08:31:00,69.0,65.9,30.13,North,355,5.0,8.0,90,0.00,,---,0.00,VWS V14.01,2013-10-03 12:31:00,
2013-10-03 08:36:00,69.2,65.5,30.13,North,355,6.0,8.0,88,0.00,,---,0.00,VWS V14.01,2013-10-03 12:36:00,
2013-10-03 08:41:00,69.4,65.7,30.13,North,5,6.0,8.0,88,0.00,,---,0.00,VWS V14.01,2013-10-03 12:41:00,
2013-10-03 08:46:00,69.6,66.2,30.13,North,5,5.0,8.0,89,0.00,,---,0.00,VWS V14.01,2013-10-03 12:46:00,
2013-10-03 08:51:00,69.8,66.1,30.13,North,5,5.0,8.0,88,0.00,,---,0.00,VWS V14.01,2013-10-03 12:51:00,
2013-10-03 08:56:00,70.1,66.4,30.13,NNW,347,7.0,8.0,88,0.00,,---,0.00,VWS V14.01,2013-10-03 12:56:00,
2013-10-03 09:01:00,70.1,66.1,30.13,North,9,6.0,7.0,87,0.00,,---,0.00,VWS V14.01,2013-10-03 13:01:00,
2013-10-03 09:07:00,70.2,66.2,30.13,North,355,5.0,9.0,87,0.00,,---,0.00,VWS V14.01,2013-10-03 13:07:00,
2013-10-03 09:12:00,70.6,66.9,30.13,NNW,348,5.0,9.0,88,0.00,,---,0.00,VWS V14.01,2013-10-03 13:12:00,
2013-10-03 09:17:00,70.9,67.2,30.13,NNE,17,4.0,9.0,88,0.00,,---,0.00,VWS V14.01,2013-10-03 13:17:00,
2013-10-03 09:22:00,71.2,67.1,30.13,NNE,17,3.0,9.0,87,0.00,,---,0.00,VWS V14.01,2013-10-03 13:22:00,
2013-10-03 09:27:00,71.5,67.4,30.13,NNW,340,4.0,9.0,87,0.00,,---,0.00,VWS V14.01,2013-10-03 13:27:00,
2013-10-03 09:32:00,71.8,67.4,30.14,NNW,331,6.0,7.0,86,0.00,,---,0.00,VWS V14.01,2013-10-03 13:32:00,
2013-10-03 09:37:00,72.0,67.2,30.13,NNW,338,5.0,7.0,85,0.00,,---,0.00,VWS V14.01,2013-10-03 13:37:00,
2013-10-03 09:42:00,72.2,67.4,30.14,North,349,4.0,7.0,85,0.00,,---,0.00,VWS V14.01,2013-10-03 13:42:00,
2013-10-03 09:47:00,72.5,68.1,30.13,NNW,344,3.0,7.0,86,0.00,,---,0.00,VWS V14.01,2013-10-03 13:47:00,
2013-10-03 09:52:00,72.8,68.0,30.14,North,9,3.0,7.0,85,0.00,,---,0.00,VWS V14.01,2013-10-03 13:52:00,
2013-10-03 09:57:00,73.1,68.0,30.14,North,9,3.0,3.0,84,0.00,,---,0.00,VWS V14.01,2013-10-03 13:57:00,
2013-10-03 10:02:00,73.4,68.3,30.14,NNE,14,4.0,6.0,84,0.00,,---,0.00,VWS V14.01,2013-10-03 14:02:00,
2013-10-03 10:07:00,73.7,68.2,30.14,NNE,13,4.0,6.0,83,0.00,,---,0.00,VWS V14.01,2013-10-03 14:07:00,
2013-10-03 10:12:00,74.0,68.2,30.14,NNE,15,2.0,6.0,82,0.00,,---,0.00,VWS V14.01,2013-10-03 14:12:00,
2013-10-03 10:17:00,74.2,68.7,30.14,NNE,16,2.0,6.0,83,0.00,,---,0.00,VWS V14.01,2013-10-03 14:17:00,
2013-10-03 10:22:00,74.4,68.2,30.14,NNE,16,1.0,6.0,81,0.00,,---,0.00,VWS V14.01,2013-10-03 14:22:00,
2013-10-03 10:28:00,74.7,68.8,30.14,NNE,16,0.0,0.0,82,0.00,,---,0.00,VWS V14.01,2013-10-03 14:28:00,
2013-10-03 10:33:00,75.2,69.0,30.14,NNE,16,0.0,1.0,81,0.00,,---,0.00,VWS V14.01,2013-10-03 14:33:00,
2013-10-03 10:38:00,76.0,69.0,30.14,NNE,16,0.0,1.0,79,0.00,,---,0.00,VWS V14.01,2013-10-03 14:38:00,
2013-10-03 10:43:00,76.6,69.2,30.14,NNE,16,0.0,1.0,78,0.00,,---,0.00,VWS V14.01,2013-10-03 14:43:00,
2013-10-03 10:48:00,77.1,69.0,30.14,NNE,16,0.0,1.0,76,0.00,,---,0.00,VWS V14.01,2013-10-03 14:48:00,
2013-10-03 10:53:00,77.3,69.2,30.14,NNE,19,0.0,4.0,76,0.00,,---,0.00,VWS V14.01,2013-10-03 14:53:00,
2013-10-03 10:58:00,77.5,69.3,30.14,NNE,19,0.0,0.0,76,0.00,,---,0.00,VWS V14.01,2013-10-03 14:58:00,
2013-10-03 11:03:00,77.4,69.6,30.15,NNE,19,0.0,1.0,77,0.00,,---,0.00,VWS V14.01,2013-10-03 15:03:00,
2013-10-03 11:08:00,77.3,69.5,30.14,ENE,58,0.0,3.0,77,0.00,,---,0.00,VWS V14.01,2013-10-03 15:08:00,
2013-10-03 11:13:00,78.1,69.9,30.14,SSE,162,4.0,5.0,76,0.00,,---,0.00,VWS V14.01,2013-10-03 15:13:00,
2013-10-03 11:18:00,78.5,69.9,30.14,SSE,161,4.0,6.0,75,0.00,,---,0.00,VWS V14.01,2013-10-03 15:18:00,
2013-10-03 11:23:00,78.7,70.1,30.14,SSE,157,3.0,6.0,75,0.00,,---,0.00,VWS V14.01,2013-10-03 15:23:00,
2013-10-03 11:28:00,78.9,69.9,30.14,SSE,153,1.0,3.0,74,0.00,,---,0.00,VWS V14.01,2013-10-03 15:28:00,
2013-10-03 11:33:00,79.2,70.2,30.14,South,177,4.0,5.0,74,0.00,,---,0.00,VWS V14.01,2013-10-03 15:33:00,
2013-10-03 11:38:00,79.3,70.3,30.14,SSE,167,5.0,5.0,74,0.00,,---,0.00,VWS V14.01,2013-10-03 15:38:00,
2013-10-03 11:44:00,79.2,70.2,30.13,SE,140,4.0,6.0,74,0.00,,---,0.00,VWS V14.01,2013-10-03 15:44:00,
2013-10-03 11:49:00,79.1,70.5,30.14,SE,138,3.0,7.0,75,0.00,,---,0.00,VWS V14.01,2013-10-03 15:49:00,
2013-10-03 11:54:00,79.3,70.7,30.14,SE,143,2.0,8.0,75,0.00,,---,0.00,VWS V14.01,2013-10-03 15:54:00,
2013-10-03 11:59:00,79.1,70.5,30.13,SE,136,3.0,6.0,75,0.00,,---,0.00,VWS V14.01,2013-10-03 15:59:00,
2013-10-03 12:04:00,79.0,70.4,30.13,SSE,166,4.0,6.0,75,0.00,,---,0.00,VWS V14.01,2013-10-03 16:04:00,
2013-10-03 12:09:00,79.2,70.2,30.14,SSE,153,5.0,7.0,74,0.00,,---,0.00,VWS V14.01,2013-10-03 16:09:00,
2013-10-03 12:14:00,79.0,70.0,30.14,SE,142,4.0,7.0,74,0.00,,---,0.00,VWS V14.01,2013-10-03 16:14:00,
2013-10-03 12:19:00,78.8,70.6,30.13,SSE,162,2.0,7.0,76,0.00,,---,0.00,VWS V14.01,2013-10-03 16:19:00,
2013-10-03 12:24:00,79.1,70.5,30.14,SSW,194,7.0,9.0,75,0.00,,---,0.00,VWS V14.01,2013-10-03 16:24:00,
2013-10-03 12:29:00,79.4,70.4,30.14,South,180,3.0,9.0,74,0.00,,---,0.00,VWS V14.01,2013-10-03 16:29:00,
2013-10-03 12:34:00,79.7,70.7,30.13,South,188,4.0,9.0,74,0.00,,---,0.00,VWS V14.01,2013-10-03 16:34:00,
2013-10-03 12:39:00,80.0,71.0,30.13,SSW,204,9.0,11.0,74,0.00,,---,0.00,VWS V14.01,2013-10-03 16:39:00,
2013-10-03 12:44:00,80.2,70.8,30.13,South,186,6.0,12.0,73,0.00,,---,0.00,VWS V14.01,2013-10-03 16:44:00,
2013-10-03 12:49:00,80.5,71.1,30.13,SSW,196,9.0,12.0,73,0.00,,---,0.00,VWS V14.01,2013-10-03 16:49:00,
2013-10-03 12:54:00,80.5,70.7,30.13,SSE,149,7.0,12.0,72,0.00,,---,0.00,VWS V14.01,2013-10-03 16:54:00,
2013-10-03 13:00:00,80.4,71.0,30.13,SSE,167,4.0,10.0,73,0.00,,---,0.00,VWS V14.01,2013-10-03 17:00:00,
2013-10-03 13:05:00,80.3,70.5,30.13,South,178,8.0,10.0,72,0.00,,---,0.00,VWS V14.01,2013-10-03 17:05:00,
2013-10-03 13:10:00,80.5,71.1,30.13,South,191,5.0,12.0,73,0.00,,---,0.00,VWS V14.01,2013-10-03 17:10:00,
2013-10-03 13:15:00,80.6,70.8,30.13,South,191,10.0,12.0,72,0.00,,---,0.00,VWS V14.01,2013-10-03 17:15:00,
2013-10-03 13:20:00,80.6,70.8,30.12,SSE,162,4.0,12.0,72,0.00,,---,0.00,VWS V14.01,2013-10-03 17:20:00,
2013-10-03 13:25:00,80.6,71.2,30.12,South,185,7.0,12.0,73,0.00,,---,0.00,VWS V14.01,2013-10-03 17:25:00,
2013-10-03 13:30:00,80.5,70.7,30.12,SSW,194,9.0,10.0,72,0.00,,---,0.00,VWS V14.01,2013-10-03 17:30:00,
2013-10-03 13:35:00,80.5,70.7,30.12,SSE,167,9.0,11.0,72,0.00,,---,0.00,VWS V14.01,2013-10-03 17:35:00,
2013-10-03 13:40:00,80.4,71.0,30.12,South,175,10.0,12.0,73,0.00,,---,0.00,VWS V14.01,2013-10-03 17:40:00,
2013-10-03 13:45:00,80.4,70.6,30.12,South,182,7.0,12.0,72,0.00,,---,0.00,VWS V14.01,2013-10-03 17:45:00,
2013-10-03 13:50:00,80.5,70.2,30.12,South,185,7.0,12.0,71,0.00,,---,0.00,VWS V14.01,2013-10-03 17:50:00,
2013-10-03 13:55:00,80.5,70.7,30.11,SSW,195,7.0,12.0,72,0.00,,---,0.00,VWS V14.01,2013-10-03 17:55:00,
2013-10-03 14:00:00,80.7,71.2,30.12,SSW,196,6.0,10.0,73,0.00,,---,0.00,VWS V14.01,2013-10-03 18:00:00,
2013-10-03 14:05:00,80.9,71.0,30.11,South,184,3.0,10.0,72,0.00,,---,0.00,VWS V14.01,2013-10-03 18:05:00,
2013-10-03 14:10:00,80.9,70.6,30.11,SSW,198,7.0,10.0,71,0.00,,---,0.00,VWS V14.01,2013-10-03 18:10:00,
2013-10-03 14:15:00,80.7,70.4,30.11,South,186,9.0,11.0,71,0.00,,---,0.00,VWS V14.01,2013-10-03 18:15:00,
2013-10-03 14:20:00,80.7,70.4,30.11,South,171,7.0,11.0,71,0.00,,---,0.00,VWS V14.01,2013-10-03 18:20:00,
2013-10-03 14:26:00,80.7,71.2,30.11,South,177,0.0,11.0,73,0.00,,---,0.00,VWS V14.01,2013-10-03 18:26:00,
2013-10-03 14:31:00,80.8,70.9,30.11,South,191,4.0,9.0,72,0.00,,---,0.00,VWS V14.01,2013-10-03 18:31:00,
2013-10-03 14:36:00,80.9,70.6,30.11,SSW,200,7.0,10.0,71,0.00,,---,0.00,VWS V14.01,2013-10-03 18:36:00,
2013-10-03 14:41:00,80.9,70.6,30.11,SSW,195,5.0,10.0,71,0.00,,---,0.00,VWS V14.01,2013-10-03 18:41:00,
2013-10-03 14:46:00,81.0,71.1,30.11,South,186,1.0,10.0,72,0.00,,---,0.00,VWS V14.01,2013-10-03 18:46:00,
2013-10-03 14:51:00,81.1,70.8,30.11,SSW,199,6.0,10.0,71,0.00,,---,0.00,VWS V14.01,2013-10-03 18:51:00,
2013-10-03 14:56:00,81.4,71.1,30.11,South,182,6.0,10.0,71,0.00,,---,0.00,VWS V14.01,2013-10-03 18:56:00,
2013-10-03 15:01:00,81.4,71.1,30.11,SSW,192,6.0,9.0,71,0.00,,---,0.00,VWS V14.01,2013-10-03 19:01:00,
2013-10-03 15:06:00,81.2,70.9,30.10,SSW,193,10.0,10.0,71,0.00,,---,0.00,VWS V14.01,2013-10-03 19:06:00,
2013-10-03 15:11:00,81.3,71.4,30.10,SSW,192,9.0,10.0,72,0.00,,---,0.00,VWS V14.01,2013-10-03 19:11:00,
2013-10-03 15:16:00,81.5,71.2,30.10,South,173,5.0,10.0,71,0.00,,---,0.00,VWS V14.01,2013-10-03 19:16:00,
2013-10-03 15:21:00,81.8,71.5,30.10,SSW,198,9.0,10.0,71,0.00,,---,0.00,VWS V14.01,2013-10-03 19:21:00,
2013-10-03 15:26:00,82.0,71.3,30.10,SSW,213,4.0,10.0,70,0.00,,---,0.00,VWS V14.01,2013-10-03 19:26:00,
2013-10-03 15:31:00,82.0,71.3,30.10,SSW,194,6.0,9.0,70,0.00,,---,0.00,VWS V14.01,2013-10-03 19:31:00,
2013-10-03 15:37:00,82.1,71.3,30.10,South,169,4.0,10.0,70,0.00,,---,0.00,VWS V14.01,2013-10-03 19:37:00,
2013-10-03 15:42:00,82.0,71.3,30.10,SSW,199,8.0,10.0,70,0.00,,---,0.00,VWS V14.01,2013-10-03 19:42:00,
2013-10-03 15:47:00,82.0,70.8,30.10,SSW,197,6.0,10.0,69,0.00,,---,0.00,VWS V14.01,2013-10-03 19:47:00,
2013-10-03 15:52:00,81.9,71.2,30.09,SSE,164,2.0,10.0,70,0.00,,---,0.00,VWS V14.01,2013-10-03 19:52:00,
2013-10-03 15:57:00,81.7,71.4,30.09,SSW,196,4.0,10.0,71,0.00,,---,0.00,VWS V14.01,2013-10-03 19:57:00,
2013-10-03 16:02:00,81.7,71.4,30.09,South,189,6.0,7.0,71,0.00,,---,0.00,VWS V14.01,2013-10-03 20:02:00,
2013-10-03 16:07:00,81.8,70.6,30.10,SSW,198,10.0,10.0,69,0.00,,---,0.00,VWS V14.01,2013-10-03 20:07:00,
2013-10-03 16:12:00,81.8,71.1,30.09,SSE,166,4.0,10.0,70,0.00,,---,0.00,VWS V14.01,2013-10-03 20:12:00,
2013-10-03 16:17:00,81.8,70.6,30.09,South,188,9.0,10.0,69,0.00,,---,0.00,VWS V14.01,2013-10-03 20:17:00,
2013-10-03 16:22:00,81.7,71.0,30.09,SSW,196,6.0,10.0,70,0.00,,---,0.00,VWS V14.01,2013-10-03 20:22:00,
2013-10-03 16:27:00,81.7,71.0,30.09,South,184,4.0,5.0,70,0.00,,---,0.00,VWS V14.01,2013-10-03 20:27:00,
2013-10-03 16:32:00,81.4,71.1,30.09,South,186,8.0,10.0,71,0.00,,---,0.00,VWS V14.01,2013-10-03 20:32:00,
2013-10-03 16:37:00,81.4,71.1,30.09,SSW,195,3.0,10.0,71,0.00,,---,0.00,VWS V14.01,2013-10-03 20:37:00,
2013-10-03 16:42:00,81.7,71.0,30.09,SSW,199,5.0,10.0,70,0.00,,---,0.00,VWS V14.01,2013-10-03 20:42:00,
2013-10-03 16:47:00,81.8,71.1,30.09,SSW,193,6.0,10.0,70,0.00,,---,0.00,VWS V14.01,2013-10-03 20:47:00,
2013-10-03 16:53:00,81.8,71.1,30.09,SSE,158,4.0,10.0,70,0.00,,---,0.00,VWS V14.01,2013-10-03 20:53:00,
2013-10-03 16:58:00,81.9,71.2,30.09,South,180,5.0,6.0,70,0.00,,---,0.00,VWS V14.01,2013-10-03 20:58:00,
2013-10-03 17:03:00,82.0,71.3,30.09,SSW,194,5.0,7.0,70,0.00,,---,0.00,VWS V14.01,2013-10-03 21:03:00,
2013-10-03 17:08:00,81.6,70.9,30.09,SSW,193,5.0,8.0,70,0.00,,---,0.00,VWS V14.01,2013-10-03 21:08:00,
2013-10-03 17:13:00,81.4,71.1,30.09,SSW,198,6.0,8.0,71,0.00,,---,0.00,VWS V14.01,2013-10-03 21:13:00,
2013-10-03 17:18:00,81.4,71.5,30.09,SSW,197,6.0,9.0,72,0.00,,---,0.00,VWS V14.01,2013-10-03 21:18:00,
2013-10-03 17:23:00,81.5,71.2,30.09,SSW,198,10.0,10.0,71,0.00,,---,0.00,VWS V14.01,2013-10-03 21:23:00,
2013-10-03 17:28:00,81.7,71.4,30.09,SSW,196,5.0,7.0,71,0.00,,---,0.00,VWS V14.01,2013-10-03 21:28:00,
2013-10-03 17:33:00,81.8,71.1,30.09,SSW,198,5.0,7.0,70,0.00,,---,0.00,VWS V14.01,2013-10-03 21:33:00,
2013-10-03 17:38:00,81.7,71.4,30.09,South,187,7.0,9.0,71,0.00,,---,0.00,VWS V14.01,2013-10-03 21:38:00,
2013-10-03 17:43:00,81.6,70.9,30.09,SSW,197,7.0,9.0,70,0.00,,---,0.00,VWS V14.01,2013-10-03 21:43:00,
2013-10-03 17:48:00,81.4,71.1,30.09,SSW,195,5.0,9.0,71,0.00,,---,0.00,VWS V14.01,2013-10-03 21:48:00,
2013-10-03 17:53:00,81.1,71.2,30.09,SSW,194,8.0,9.0,72,0.00,,---,0.00,VWS V14.01,2013-10-03 21:53:00,
2013-10-03 17:58:00,80.8,70.9,30.09,South,191,7.0,10.0,72,0.00,,---,0.00,VWS V14.01,2013-10-03 21:58:00,
2013-10-03 18:04:00,80.7,71.2,30.09,SSW,196,7.0,10.0,73,0.00,,---,0.00,VWS V14.01,2013-10-03 22:04:00,
2013-10-03 18:09:00,80.5,71.1,30.09,South,190,6.0,10.0,73,0.00,,---,0.00,VWS V14.01,2013-10-03 22:09:00,
2013-10-03 18:14:00,80.4,71.0,30.09,South,173,5.0,10.0,73,0.00,,---,0.00,VWS V14.01,2013-10-03 22:14:00,
2013-10-03 18:19:00,80.5,71.1,30.09,SSE,166,7.0,10.0,73,0.00,,---,0.00,VWS V14.01,2013-10-03 22:19:00,
2013-10-03 18:24:00,80.4,71.4,30.09,SSW,196,6.0,10.0,74,0.00,,---,0.00,VWS V14.01,2013-10-03 22:24:00,
2013-10-03 18:29:00,80.2,71.2,30.09,South,188,4.0,8.0,74,0.00,,---,0.00,VWS V14.01,2013-10-03 22:29:00,
2013-10-03 18:34:00,79.9,70.9,30.09,South,180,3.0,10.0,74,0.00,,---,0.00,VWS V14.01,2013-10-03 22:34:00,
2013-10-03 18:39:00,79.5,70.9,30.09,South,170,8.0,10.0,75,0.00,,---,0.00,VWS V14.01,2013-10-03 22:39:00,
2013-10-03 18:44:00,78.9,70.7,30.09,SSW,193,6.0,10.0,76,0.00,,---,0.00,VWS V14.01,2013-10-03 22:44:00,
2013-10-03 18:49:00,78.3,70.5,30.09,South,180,3.0,10.0,77,0.00,,---,0.00,VWS V14.01,2013-10-03 22:49:00,
2013-10-03 18:54:00,77.8,70.8,30.09,South,175,6.0,10.0,79,0.00,,---,0.00,VWS V14.01,2013-10-03 22:54:00,
2013-10-03 18:59:00,77.4,70.8,30.09,SSW,196,6.0,10.0,80,0.00,,---,0.00,VWS V14.01,2013-10-03 22:59:00,
2013-10-03 19:04:00,77.1,70.8,30.10,SSW,194,3.0,10.0,81,0.00,,---,0.00,VWS V14.01,2013-10-03 23:04:00,
2013-10-03 19:09:00,76.8,70.9,30.10,SSW,198,7.0,10.0,82,0.00,,---,0.00,VWS V14.01,2013-10-03 23:09:00,
2013-10-03 19:14:00,76.6,71.1,30.10,South,178,5.0,10.0,83,0.00,,---,0.00,VWS V14.01,2013-10-03 23:14:00,
2013-10-03 19:20:00,76.4,70.9,30.10,South,188,5.0,10.0,83,0.00,,---,0.00,VWS V14.01,2013-10-03 23:20:00,
2013-10-03 19:25:00,76.2,71.0,30.10,SSW,193,5.0,10.0,84,0.00,,---,0.00,VWS V14.01,2013-10-03 23:25:00,
2013-10-03 19:30:00,76.0,70.8,30.10,SSW,192,5.0,7.0,84,0.00,,---,0.00,VWS V14.01,2013-10-03 23:30:00,
2013-10-03 19:35:00,75.9,71.1,30.10,South,178,4.0,9.0,85,0.00,,---,0.00,VWS V14.01,2013-10-03 23:35:00,
2013-10-03 19:40:00,75.8,71.3,30.10,South,190,7.0,9.0,86,0.00,,---,0.00,VWS V14.01,2013-10-03 23:40:00,
2013-10-03 19:45:00,75.6,71.1,30.10,South,176,9.0,10.0,86,0.00,,---,0.00,VWS V14.01,2013-10-03 23:45:00,
2013-10-03 19:50:00,75.6,71.1,30.10,SSW,193,6.0,10.0,86,0.00,,---,0.00,VWS V14.01,2013-10-03 23:50:00,
2013-10-03 19:55:00,75.5,71.4,30.10,South,185,10.0,10.0,87,0.00,,---,0.00,VWS V14.01,2013-10-03 23:55:00,
2013-10-03 20:00:00,75.4,71.3,30.10,South,171,3.0,10.0,87,0.00,,---,0.00,VWS V14.01,2013-10-04 00:00:00,
2013-10-03 20:05:00,75.4,71.3,30.10,South,185,2.0,10.0,87,0.00,,---,0.00,VWS V14.01,2013-10-04 00:05:00,
2013-10-03 20:10:00,75.3,71.5,30.10,South,173,3.0,10.0,88,0.00,,---,0.00,VWS V14.01,2013-10-04 00:10:00,
2013-10-03 20:15:00,75.3,71.2,30.11,South,178,5.0,10.0,87,0.00,,---,0.00,VWS V14.01,2013-10-04 00:15:00,
2013-10-03 20:20:00,75.2,71.4,30.11,SSE,163,4.0,10.0,88,0.00,,---,0.00,VWS V14.01,2013-10-04 00:20:00,
2013-10-03 20:25:00,75.1,71.0,30.11,South,190,5.0,10.0,87,0.00,,---,0.00,VWS V14.01,2013-10-04 00:25:00,
2013-10-03 20:30:00,75.1,71.3,30.11,South,171,3.0,8.0,88,0.00,,---,0.00,VWS V14.01,2013-10-04 00:30:00,
2013-10-03 20:36:00,75.1,71.3,30.11,SSW,196,4.0,9.0,88,0.00,,---,0.00,VWS V14.01,2013-10-04 00:36:00,
2013-10-03 20:41:00,75.1,71.3,30.10,South,188,5.0,9.0,88,0.00,,---,0.00,VWS V14.01,2013-10-04 00:41:00,
2013-10-03 20:46:00,75.0,71.2,30.11,SSE,165,4.0,9.0,88,0.00,,---,0.00,VWS V14.01,2013-10-04 00:46:00,
2013-10-03 20:51:00,74.9,71.4,30.11,South,185,5.0,9.0,89,0.00,,---,0.00,VWS V14.01,2013-10-04 00:51:00,
2013-10-03 20:56:00,74.9,71.1,30.11,South,182,6.0,9.0,88,0.00,,---,0.00,VWS V14.01,2013-10-04 00:56:00,
2013-10-03 21:01:00,74.9,71.1,30.11,SSW,193,7.0,9.0,88,0.00,,---,0.00,VWS V14.01,2013-10-04 01:01:00,
2013-10-03 21:06:00,74.9,71.4,30.11,SSE,167,6.0,9.0,89,0.00,,---,0.00,VWS V14.01,2013-10-04 01:06:00,
2013-10-03 21:11:00,74.9,71.4,30.11,South,182,7.0,9.0,89,0.00,,---,0.00,VWS V14.01,2013-10-04 01:11:00,
2013-10-03 21:16:00,74.9,71.4,30.11,South,180,4.0,9.0,89,0.00,,---,0.00,VWS V14.01,2013-10-04 01:16:00,
2013-10-03 21:21:00,74.9,71.4,30.11,SSE,155,3.0,9.0,89,0.00,,---,0.00,VWS V14.01,2013-10-04 01:21:00,
2013-10-03 21:26:00,74.9,71.4,30.11,South,177,3.0,9.0,89,0.00,,---,0.00,VWS V14.01,2013-10-04 01:26:00,
2013-10-03 21:31:00,74.9,71.4,30.11,SE,146,5.0,6.0,89,0.00,,---,0.00,VWS V14.01,2013-10-04 01:31:00,
2013-10-03 21:36:00,74.9,71.1,30.12,SSE,160,1.0,6.0,88,0.00,,---,0.00,VWS V14.01,2013-10-04 01:36:00,
2013-10-03 21:41:00,75.0,71.5,30.11,SE,128,4.0,7.0,89,0.00,,---,0.00,VWS V14.01,2013-10-04 01:41:00,
2013-10-03 21:47:00,75.0,71.2,30.11,SSE,163,2.0,7.0,88,0.00,,---,0.00,VWS V14.01,2013-10-04 01:47:00,
2013-10-03 21:52:00,75.0,71.5,30.12,South,170,3.0,7.0,89,0.00,,---,0.00,VWS V14.01,2013-10-04 01:52:00,
2013-10-03 21:57:00,75.0,71.2,30.12,SSE,164,4.0,7.0,88,0.00,,---,0.00,VWS V14.01,2013-10-04 01:57:00,
2013-10-03 22:02:00,75.0,71.5,30.12,South,169,3.0,6.0,89,0.00,,---,0.00,VWS V14.01,2013-10-04 02:02:00,
2013-10-03 22:07:00,75.0,71.2,30.12,South,173,2.0,6.0,88,0.00,,---,0.00,VWS V14.01,2013-10-04 02:07:00,
2013-10-03 22:12:00,75.0,71.2,30.12,SSE,167,2.0,6.0,88,0.00,,---,0.00,VWS V14.01,2013-10-04 02:12:00,
2013-10-03 22:17:00,75.1,71.3,30.12,SSE,162,1.0,6.0,88,0.00,,---,0.00,VWS V14.01,2013-10-04 02:17:00,
2013-10-03 22:22:00,75.0,71.2,30.11,SE,141,4.0,6.0,88,0.00,,---,0.00,VWS V14.01,2013-10-04 02:22:00,
2013-10-03 22:27:00,75.0,71.2,30.12,SSE,165,3.0,6.0,88,0.00,,---,0.00,VWS V14.01,2013-10-04 02:27:00,
2013-10-03 22:32:00,75.0,71.2,30.11,SSE,166,4.0,5.0,88,0.00,,---,0.00,VWS V14.01,2013-10-04 02:32:00,
2013-10-03 22:37:00,75.1,71.6,30.12,South,171,1.0,6.0,89,0.00,,---,0.00,VWS V14.01,2013-10-04 02:37:00,
2013-10-03 22:42:00,75.1,71.6,30.12,SE,142,3.0,6.0,89,0.00,,---,0.00,VWS V14.01,2013-10-04 02:42:00,
2013-10-03 22:47:00,75.1,71.3,30.12,SSE,156,3.0,6.0,88,0.00,,---,0.00,VWS V14.01,2013-10-04 02:47:00,
2013-10-03 22:52:00,75.2,71.4,30.12,SSE,157,1.0,6.0,88,0.00,,---,0.00,VWS V14.01,2013-10-04 02:52:00,
2013-10-03 22:57:00,75.2,71.4,30.12,SSE,155,3.0,3.0,88,0.00,,---,0.00,VWS V14.01,2013-10-04 02:57:00,
2013-10-03 23:02:00,75.2,71.4,30.12,South,169,4.0,6.0,88,0.00,,---,0.00,VWS V14.01,2013-10-04 03:02:00,
2013-10-03 23:08:00,75.2,71.4,30.12,SSE,148,2.0,6.0,88,0.00,,---,0.00,VWS V14.01,2013-10-04 03:08:00,
2013-10-03 23:13:00,75.2,71.4,30.12,SSE,153,2.0,6.0,88,0.00,,---,0.00,VWS V14.01,2013-10-04 03:13:00,
2013-10-03 23:18:00,75.2,71.7,30.12,SSE,165,1.0,6.0,89,0.00,,---,0.00,VWS V14.01,2013-10-04 03:18:00,
2013-10-03 23:23:00,75.1,71.6,30.12,SSE,159,1.0,6.0,89,0.00,,---,0.00,VWS V14.01,2013-10-04 03:23:00,
2013-10-03 23:28:00,75.2,71.7,30.12,SSE,165,2.0,2.0,89,0.00,,---,0.00,VWS V14.01,2013-10-04 03:28:00,
2013-10-03 23:33:00,75.2,71.7,30.12,South,172,1.0,4.0,89,0.00,,---,0.00,VWS V14.01,2013-10-04 03:33:00,
2013-10-03 23:38:00,75.2,71.4,30.12,SSE,152,3.0,4.0,88,0.00,,---,0.00,VWS V14.01,2013-10-04 03:38:00,
2013-10-03 23:43:00,75.2,71.4,30.12,SSE,163,2.0,4.0,88,0.00,,---,0.00,VWS V14.01,2013-10-04 03:43:00,
2013-10-03 23:48:00,75.2,71.4,30.11,SSE,163,1.0,4.0,88,0.00,,---,0.00,VWS V14.01,2013-10-04 03:48:00,
2013-10-03 23:53:00,75.1,71.3,30.11,SSE,163,2.0,4.0,88,0.00,,---,0.00,VWS V14.01,2013-10-04 03:53:00,
2013-10-03 23:59:00,75.1,71.3,30.11,SSE,164,0.0,3.0,88,0.00,,---,0.00,VWS V14.01,2013-10-04 03:59:00,